7 * 24
多渠道服务支持
STARLINK-34550 是 SpaceX Starlink 卫星互联网项目中的一颗低轨卫星,属于第二代 Starlink 卫星(Gen2)。它于2024年发射,旨在为全球用户提供高速、低延迟的宽带互联网服务。该卫星采用先进通信技术,支持更高带宽和更广覆盖范围,助力改善偏远地区的网络接入。作为 Starlink 计划的一部分,STARLINK-34550 与其他数千颗卫星协同工作,构建全球性卫星互联网网络。
美国
(US)
| 数据来源 | 国际轨道数据 |
| 星历时间: | 2025-10-30T06:14:07+0800 20小时前 查看轨道信息 |
| 半长轴: | 6853.304km |
| 偏心率: | 0.0001446 |
| 轨道倾角: | 53.161° |
| 近地点辐角 | 90.790° |
| 升交点赤经 | 14.424° |
| 平近点角 | 269.326° |
| 近地点: | 474.178km |
| 远地点: | 476.16km |
| 周期: | 94.104分钟 |
| 每日圈数: | 15.302164 |